Weather History for Kenai, AK

Change the Weather History Date:

Monday, May 13, 2013

  Actual Average Record
Temperature  
Mean Temperature 42 °F -  
Max Temperature 48 °F 52 °F 71 °F (1968)
Min Temperature 35 °F 35 °F 25 °F (1961)
Degree Days  
Heating Degree Days 24    
Moisture  
Dew Point 34 °F    
Average Humidity 83    
Maximum Humidity 100    
Minimum Humidity 41    
Precipitation  
Precipitation 0.01 in - - ()
Sea Level Pressure  
Sea Level Pressure 29.45 in    
Wind  
Wind Speed 2 mph (NNW)    
Max Wind Speed 12 mph    
Max Gust Speed -    
Visibility 7 miles    
Events Fog , Rain    
Averages and records for this station are not official NWS values.
T = Trace of Precipitation, MM = Missing Value Source: NWS Daily Summary

Daily Weather History Graph

Daily Weather History Graph

Search for Another Location

Airport:

Trip Planner

Search our weather history database for the weather conditions in past years. The results will help you decide how hot, cold, wet, or windy it might be!

Date:

Astronomy

May. 13, 2013 Rise Set
Actual Time 5:26 AM AKDT 10:37 PM AKDT
Civil Twilight 4:21 AM AKDT 11:43 PM AKDT
Nautical Twilight 2:33 AM AKDT 1:28 AM AKDT
Astronomical Twilight Sun does not rise Sun does not rise
Moon 8:16 AM AKDT (5/13) 1:16 AM AKDT (5/13)
Length of Visible Light 19h 21m
Length of Day
17h 11m
Waxing Crescent, 13% of the Moon is Illuminated
May 13
Waxing Crescent
May 17
First Quarter
May 24
Full
May 31
Last Quarter
Jun 8
New

Hourly Weather History & Observations

Time (AKDT) Temp. Windchill Dew Point Humidity Pressure Visibility Wind Dir Wind Speed Gust Speed Precip Events Conditions
12:53 AM 42.1 °F 39.2 °F 39.0 °F 89% 29.49 in 10.0 mi South 4.6 mph - N/A   Mostly Cloudy
1:53 AM 39.0 °F - 39.0 °F 100% 29.49 in 10.0 mi Calm Calm - N/A   Scattered Clouds
2:53 AM 37.9 °F - 37.0 °F 97% 29.47 in 10.0 mi Calm Calm - N/A   Partly Cloudy
3:51 AM 35.6 °F - 35.6 °F 100% 29.46 in 1.8 mi Calm Calm - N/A   Mostly Cloudy
3:53 AM 36.0 °F - 36.0 °F 100% 29.47 in 1.2 mi Calm Calm - N/A   Mostly Cloudy
4:10 AM 35.6 °F - 35.6 °F 100% 29.45 in 4.0 mi Calm Calm - N/A   Scattered Clouds
4:34 AM 35.6 °F 32.8 °F 33.8 °F 93% 29.45 in 2.0 mi NW 3.5 mph - N/A   Scattered Clouds
4:41 AM 35.6 °F - 35.6 °F 100% 29.45 in 1.5 mi Calm Calm - N/A   Scattered Clouds
4:44 AM 35.6 °F 32.8 °F 35.6 °F 100% 29.45 in 4.0 mi WNW 3.5 mph - N/A   Scattered Clouds
4:53 AM 37.0 °F - 37.0 °F 100% 29.45 in 10.0 mi Calm Calm - N/A   Scattered Clouds
5:27 AM 35.6 °F 32.8 °F 35.6 °F 100% 29.44 in 2.5 mi NW 3.5 mph - N/A   Mostly Cloudy
5:29 AM 35.6 °F - 35.6 °F 100% 29.44 in 1.5 mi Calm Calm - N/A   Overcast
5:32 AM 35.6 °F - 35.6 °F 100% 29.44 in 0.8 mi Calm Calm - N/A   Overcast
5:53 AM 37.0 °F - 37.0 °F 100% 29.45 in 0.2 mi Calm Calm - N/A Fog Fog
6:10 AM 37.4 °F - 37.4 °F 100% 29.44 in 0.2 mi Calm Calm - N/A Fog Fog
6:21 AM 37.4 °F - 37.4 °F 100% 29.44 in 1.0 mi Calm Calm - N/A   Overcast
6:28 AM 35.6 °F - 35.6 °F 100% 29.44 in 4.0 mi Calm Calm - N/A   Overcast
6:53 AM 36.0 °F - 36.0 °F 100% 29.44 in 8.0 mi Calm Calm - N/A   Scattered Clouds
7:53 AM 37.9 °F - 37.9 °F 100% 29.44 in 10.0 mi Calm Calm - N/A   Overcast
8:53 AM 42.1 °F 38.4 °F 41.0 °F 96% 29.44 in 10.0 mi ENE 5.8 mph - N/A   Overcast
9:53 AM 44.1 °F - 39.9 °F 85% 29.44 in 10.0 mi Calm Calm - N/A   Overcast
10:53 AM 46.0 °F 42.5 °F 39.0 °F 76% 29.44 in 10.0 mi NNE 6.9 mph - N/A   Overcast
12:53 PM 48.0 °F - 28.9 °F 48% 29.44 in 10.0 mi Variable 4.6 mph - N/A   Overcast
1:53 PM 46.0 °F 41.0 °F 34.0 °F 63% 29.44 in 10.0 mi North 10.4 mph - N/A   Overcast
2:53 PM 43.0 °F 41.3 °F 37.0 °F 80% 29.45 in 6.0 mi NW 3.5 mph - 0.01 in Rain Light Rain
3:53 PM 46.4 °F - 35.6 °F 66% 29.43 in 10.0 mi Calm Calm - N/A   Overcast
4:53 PM 48.9 °F - 35.1 °F 59% 29.44 in 10.0 mi North 4.6 mph - N/A   Overcast
5:53 PM 46.9 °F - 35.1 °F 63% 29.43 in 10.0 mi WSW 5.8 mph - N/A   Overcast
6:53 PM 46.0 °F 43.9 °F 34.0 °F 63% 29.43 in 10.0 mi West 4.6 mph - N/A   Overcast
7:53 PM 48.0 °F - 26.1 °F 42% 29.43 in 10.0 mi NNE 11.5 mph - N/A   Overcast
8:53 PM 46.9 °F - 24.1 °F 41% 29.44 in 10.0 mi NNE 9.2 mph - N/A   Overcast
9:53 PM 44.1 °F 38.6 °F 21.9 °F 42% 29.45 in 10.0 mi North 10.4 mph - N/A   Overcast
10:53 PM 39.9 °F 37.8 °F 21.9 °F 49% 29.47 in 10.0 mi NNE 3.5 mph - N/A   Overcast
11:53 PM 37.9 °F 35.5 °F 24.1 °F 57% 29.48 in 10.0 mi North 3.5 mph - N/A   Overcast